Skip Page Navigation
NASA JPL Caltech
NASA Logo - Jet Propulsion Laboratory + View the NASA Portal
+ Center for Near-Earth Object Studies
JPL Home Earth Solar System Stars & Galaxies Technology
JPL Solar System Dynamics
BODIES ORBITS EPHEMERIDES TOOLS PHYSICAL DATA DISCOVERY FAQ SITE MAP
IMPORTANT: The SSD Announcement email list is now available. Major changes are coming in the near future, including possible hostname and/or URL changes. To be notified of such changes, subscribe to this email list.

Please visit this page for more details.


JPL Small-Body Database Browser
Search: [ help ]  
97860 (2000 QR26)
Classification: Main-belt Asteroid          SPK-ID: 2097860
Ephemeris | Orbit Diagram | Orbital Elements | Mission Design | Physical Parameters | Discovery Circumstances ]

[ show orbit diagram ]
Orbital Elements at Epoch 2458600.5 (2019-Apr-27.0) TDB
Reference: JPL 18 (heliocentric ecliptic J2000)
 Element Value Uncertainty (1-sigma)   Units 
e .180183294137095 5.0092e-08  
a 2.287479191643899 1.1775e-08 au
q 1.875313655623442 1.1708e-07 au
i 5.379354295373778 5.504e-06 deg
node 305.9685342277981 5.1179e-05 deg
peri 10.84667389858216 5.2829e-05 deg
M 167.0808571797761 1.4313e-05 deg
tp 2458014.013055442223
(2017-Sep-17.51305544)
4.9413e-05 TDB
period 1263.67139602128
3.46
9.7575e-06
2.671e-08
d
yr
n .2848841883526638 2.1997e-09 deg/d
Q 2.699644727664356 1.3897e-08 au
  Orbit Determination Parameters
   # obs. used (total)      528  
   data-arc span      7232 days (19.80 yr)  
   first obs. used      1999-03-23  
   last obs. used      2019-01-09  
   planetary ephem.      DE431  
   SB-pert. ephem.      SB431-N16  
   condition code      0  
   norm. resid. RMS      .57268  
   source      ORB  
   producer      Otto Matic  
   solution date      2019-Jul-13 08:39:39  

Additional Information
 Earth MOID = .861195 au 
 Jupiter MOID = 2.58424 au 
 T_jup = 3.573 
[ show covariance matrix ]

Ephemeris | Orbit Diagram | Orbital Elements | Mission Design | Physical Parameters | Discovery Circumstances ]

Physical Parameter Table
Parameter Symbol Value Units Sigma Reference Notes
absolute magnitude H 15.8   n/a MPO320158  

97860 (2000 QR26)          Discovered 2000-Aug-27 by BATTeRS at Bisei SG Center
Reference: 20050224/Numbers.arcLast Updated: 2005-02-28
Ephemeris | Orbit Diagram | Orbital Elements | Mission Design | Physical Parameters | Discovery Circumstances ]
ABOUT SSD CREDITS/AWARDS PRIVACY/COPYRIGHT GLOSSARY LINKS
FirstGov 2019-Oct-15 07:52 UT
(server date/time)  
NASA Home Page
Site Manager:   Ryan S. Park
Webmaster  Alan B. Chamberlin